Temperature
3 3 4 4 4 4 4 4 4 3 3 3 4 4 4 4 4 4 4 4 4 4 4 4 5 5 5 5 5 5 5 5 5 5 5 5 4 4
3 3 3 3 3 3 3 3 3 3 3 3 3 4 4 4 4 4 4 4 4 4 4 4 4 4 4 4 4 4 4 4 4 4 4 4 4 4
2 2 2 2 3 3 3 3 3 3 3 3 3 3 3 3 3 3 3 3 3 3 3 3 3 3 3 3 3 3 4 4 4 4 3 3 4 3
2 2 2 2 2 2 2 2 2 2 2 2 3 3 3 3 3 3 2 2 3 3 3 3 3 3 3 3 3 3 3 3 3 3 3 3 3 3
1 1 1 1 2 2 2 2 2 2 2 2 2 2 2 2 2 2 2 2 2 2 2 2 2 2 2 2 2 2 2 2 2 2 2 3 3 3
1 1 1 1 1 1 1 1 1 1 1 1 2 2 2 2 1 1 2 2 2 1 2 2 2 2 2 2 2 2 2 2 2 2 2 2 2 2
0 0 0 1 1 1 1 1 1 1 1 1 1 1 1 1 1 1 1 1 1 1 1 1 1 1 1 1 1 1 1 1 1 1 1 1 1 1
-0 -0 -0 0 0 0 0 1 1 1 1 1 1 1 1 1 1 0 0 0 0 0 0 1 1 1 1 1 1 1 1 1 1 1 1 1 1 1
-1 -1 -1 -0 -0 -0 -0 0 0 0 0 0 0 0 0 0 0 -0 -0 -0 -1 -0 -0 -0 0 0 0 0 0 0 0 0 0 -0 -0 0 0 0
-1 -1 -1 -1 -1 -1 -0 -0 -0 0 0 -0 -0 -0 -0 -0 -0 -0 -1 -1 -1 -1 -1 -1 -1 -0 -0 -0 -0 -0 -0 -1 -1 -1 -1 -1 -1 -0
-2 -2 -1 -1 -1 -1 -1 -1 -1 -1 -1 -1 -1 -1 -1 -1 -1 -1 -1 -2 -2 -2 -2 -2 -2 -1 -1 -1 -1 -1 -1 -1 -1 -1 -1 -1 -1 -1
-3 -2 -2 -2 -2 -2 -2 -1 -1 -1 -1 -1 -1 -1 -1 -1 -1 -1 -2 -2 -2 -3 -2 -2 -2 -2 -2 -2 -2 -2 -2 -2 -2 -2 -2 -2 -2 -2
-3 -3 -3 -3 -2 -2 -2 -2 -2 -2 -2 -2 -2 -2 -2 -2 -2 -2 -2 -2 -2 -3 -3 -3 -3 -3 -3 -3 -3 -2 -2 -2 -2 -2 -2 -2 -2 -2
-4 -4 -4 -3 -3 -3 -3 -3 -2 -2 -2 -2 -2 -2 -2 -2 -2 -2 -2 -3 -3 -3 -3 -3 -3 -3 -3 -3 -3 -3 -3 -3 -3 -3 -3 -3 -3 -3
-5 -4 -4 -4 -4 -3 -3 -3 -3 -3 -3 -3 -3 -3 -3 -3 -3 -3 -3 -3 -3 -3 -3 -3 -3 -3 -4 -4 -4 -3 -3 -3 -4 -3 -3 -3 -3 -3
-5 -5 -4 -4 -4 -4 -4 -4 -4 -4 -4 -4 -3 -3 -3 -3 -4 -4 -4 -4 -4 -4 -4 -4 -4 -4 -4 -4 -4 -4 -4 -4 -4 -4 -4 -4 -3 -3
-6 -5 -5 -5 -5 -4 -4 -4 -4 -4 -4 -4 -4 -4 -4 -4 -4 -4 -4 -4 -4 -5 -4 -4 -5 -5 -5 -5 -5 -5 -5 -5 -5 -5 -4 -4 -4 -4
-6 -6 -6 -6 -5 -5 -5 -5 -5 -5 -5 -5 -5 -4 -5 -5 -5 -5 -5 -5 -5 -5 -5 -5 -5 -5 -5 -5 -5 -5 -5 -5 -5 -5 -5 -5 -4 -4
-7 -7 -6 -6 -6 -6 -6 -6 -6 -5 -5 -5 -5 -5 -5 -5 -5 -5 -5 -5 -5 -5 -6 -6 -6 -6 -6 -6 -6 -6 -6 -6 -6 -6 -6 -5 -5 -5
-7 -7 -7 -7 -7 -7 -7 -7 -6 -6 -6 -6 -6 -6 -6 -6 -6 -6 -6 -6 -6 -6 -6 -6 -6 -6 -6 -6 -6 -6 -6 -6 -6 -6 -6 -6 -6 -5
-8 -8 -8 -8 -8 -7 -7 -7 -7 -7 -7 -7 -7 -7 -6 -6 -6 -6 -7 -7 -7 -7 -7 -7 -7 -7 -7 -7 -7 -7 -7 -7 -7 -7 -7 -7 -7 -6
-9 -9 -8 -8 -8 -8 -8 -8 -8 -8 -7 -7 -7 -7 -7 -7 -7 -7 -7 -7 -7 -7 -7 -7 -7 -7 -7 -7 -7 -7 -7 -7 -7 -7 -7 -7 -8 -7
-9 -9 -9 -9 -9 -9 -9 -8 -8 -8 -8 -8 -8 -8 -8 -8 -8 -8 -8 -8 -8 -8 -8 -8 -8 -8 -8 -8 -8 -8 -8 -8 -8 -8 -7 -8 -8 -7
Wind_Speed
5 6 5 4 4 4 3 4 4 4 4 4 2 3 4 4 4 4 5 4 5 5 6 5 5 5 5 5 5 5 5 5 5 6 6 7 8 8
4 5 5 5 5 4 4 4 4 4 4 3 3 3 4 4 5 5 5 5 6 6 6 5 5 5 5 5 6 6 6 6 6 6 7 7 8 9
4 5 5 5 5 5 5 4 4 4 5 3 3 3 4 5 4 5 5 5 5 6 7 6 6 6 6 6 7 8 7 7 7 7 7 7 8 9
6 5 6 5 6 5 5 5 5 5 5 4 3 3 5 5 5 5 5 5 5 6 7 8 8 8 8 8 7 8 8 8 8 8 8 8 9 9
6 7 6 6 6 5 6 6 5 4 4 4 4 3 3 4 5 4 5 5 5 5 7 8 8 8 8 8 8 8 9 9 9 8 9 9 9 9
7 7 7 7 8 7 6 6 5 5 4 4 4 3 3 4 4 4 4 4 4 4 5 6 7 8 8 9 9 9 9 10 10 9 9 9 9 9
7 7 7 7 8 7 6 7 7 6 5 5 4 4 4 4 5 4 4 3 4 3 4 4 4 4 5 7 7 7 7 8 9 9 9 9 9 9
7 7 7 7 8 8 8 8 8 8 7 6 5 6 6 5 4 4 4 3 4 2 3 4 4 4 5 5 6 7 7 7 7 8 8 9 10 10
7 7 6 6 7 7 7 7 7 9 9 8 8 8 7 6 6 6 6 6 5 3 4 5 4 5 5 5 6 7 7 7 7 8 8 8 9 10
7 7 7 6 6 6 6 6 7 7 8 8 8 8 7 7 7 7 6 5 4 3 4 5 4 4 4 5 6 7 8 8 8 8 9 10 10 11
6 7 7 7 7 7 6 6 6 6 6 8 8 8 8 8 7 5 5 5 5 4 3 4 4 4 4 5 5 6 7 8 8 8 9 9 10 10
5 6 7 7 7 8 7 6 7 6 5 4 5 5 6 7 8 7 6 6 4 4 3 3 3 3 3 3 3 4 5 7 8 8 9 9 9 8
4 5 5 7 8 9 8 7 8 6 5 5 4 4 4 4 5 5 5 5 5 4 3 3 3 3 4 3 4 4 5 5 6 7 8 9 9 8
5 5 5 7 8 8 7 7 6 5 4 4 4 4 4 4 4 3 4 4 4 4 5 5 4 4 4 5 5 3 4 5 5 5 6 8 8 9
5 6 7 7 7 6 6 5 5 4 4 4 4 4 4 3 3 2 2 2 2 3 4 5 4 4 5 5 5 5 4 5 5 5 5 5 6 5
5 5 6 6 5 5 4 4 4 4 4 4 4 3 3 3 4 4 3 3 3 3 3 4 5 5 5 6 5 5 5 4 4 5 5 6 6 6
4 4 3 3 3 3 3 3 3 3 3 3 3 3 3 3 3 3 3 4 4 4 3 2 3 3 5 5 5 5 5 5 5 5 5 6 6 6
4 4 3 3 4 4 4 4 3 3 3 3 3 3 4 4 3 3 3 4 4 4 4 3 2 3 3 4 5 6 5 5 5 5 5 6 6 5
3 3 3 3 3 3 3 3 3 3 3 3 3 3 4 4 3 3 4 3 4 4 4 3 3 3 4 5 3 5 5 4 4 5 5 5 6 6
2 3 3 3 3 3 3 3 3 3 3 3 3 3 4 4 4 4 4 4 4 4 4 4 4 4 4 4 4 4 6 5 4 5 5 5 6 8
2 2 3 3 3 3 3 3 3 3 3 3 3 3 3 4 4 4 4 5 4 4 5 5 4 3 2 2 4 4 4 5 6 5 5 5 5 5
2 3 3 3 3 3 3 2 2 3 3 3 3 3 3 3 4 4 4 4 4 4 4 3 2 2 3 4 5 5 5 4 6 8 9 7 4 4
3 3 3 3 3 3 3 3 3 3 3 3 3 3 3 3 4 4 4 4 4 4 4 3 3 3 3 4 5 5 6 5 4 4 5 7 10 13
Wind_Direction
218 215 213 217 225 227 216 206 212 229 235 227 225 231 244 247 258 259 260 257 260 269 273 272 277 270 268 256 251 262 275 280 283 290 294 298 293 288
220 220 219 218 220 226 221 220 227 234 239 229 243 248 242 249 251 254 263 256 241 248 255 259 262 263 263 266 256 251 257 263 268 279 287 291 293 294
222 225 224 221 222 224 221 221 224 228 239 248 254 250 241 247 249 252 255 252 243 242 244 247 250 254 258 263 264 254 250 257 265 269 275 283 289 292
222 226 229 222 229 228 221 222 224 229 233 236 249 250 248 241 240 243 247 249 250 250 244 246 248 252 255 258 262 261 252 253 258 263 268 275 281 286
226 226 230 226 230 236 229 226 227 230 233 227 237 253 260 242 237 246 247 249 253 253 250 247 248 249 249 250 253 262 259 252 251 256 262 268 274 279
231 231 229 230 230 236 235 230 226 227 228 225 231 243 252 247 236 241 251 257 260 257 256 252 251 250 250 252 254 257 261 255 250 254 259 263 266 272
235 234 233 236 238 236 236 232 223 223 224 226 230 237 243 236 236 244 252 263 266 265 263 253 248 249 251 257 260 261 264 265 258 254 255 259 263 267
235 237 236 235 240 242 246 242 233 223 223 229 236 233 237 238 238 237 238 256 265 258 267 269 257 260 253 257 261 263 266 268 265 262 262 265 267 267
237 236 235 235 237 239 242 239 240 237 233 232 233 238 237 229 227 230 233 243 257 254 260 264 262 262 257 258 262 264 266 266 265 265 269 272 276 273
241 240 235 235 234 237 238 235 238 238 235 234 235 236 238 228 226 233 239 251 268 249 248 260 267 271 269 258 262 267 265 262 265 272 272 272 273 273
246 246 241 237 234 238 232 231 240 247 249 245 246 240 231 228 224 221 223 230 253 255 249 255 269 280 278 272 265 263 265 263 262 268 275 276 275 273
249 249 244 243 241 240 234 227 234 241 237 241 243 236 226 215 213 216 217 222 241 251 233 236 259 273 273 266 265 264 267 271 271 271 275 279 280 279
248 251 250 247 249 251 248 240 237 242 237 236 236 227 220 214 214 219 223 221 230 244 223 231 250 256 260 273 276 270 268 276 274 271 271 275 275 272
246 251 253 253 255 254 252 246 238 235 231 227 227 227 223 219 218 220 229 239 247 248 224 225 247 247 257 269 271 271 272 269 272 276 277 275 269 268
253 256 261 258 257 253 245 239 226 226 224 225 226 230 231 220 209 216 227 230 264 254 227 237 247 247 253 260 266 270 279 277 268 275 277 274 272 271
258 259 262 255 250 248 239 227 226 230 232 232 232 228 218 215 218 217 225 224 244 260 253 247 244 247 254 258 260 264 265 266 274 281 280 276 268 263
250 253 250 249 243 240 237 234 235 231 235 236 231 223 219 221 227 223 225 227 238 242 251 264 269 265 264 261 259 259 266 273 274 278 277 275 268 263
246 244 246 249 249 246 240 237 240 239 240 241 234 226 221 220 227 231 231 232 233 236 243 249 257 270 271 267 247 257 268 273 278 277 270 269 272 269
243 241 247 251 252 256 253 247 253 253 250 240 233 232 229 223 222 225 228 236 241 244 245 242 239 244 262 272 249 230 258 275 279 278 273 268 270 274
256 256 256 252 247 250 255 254 257 254 249 243 238 236 231 223 222 225 225 231 239 246 251 247 242 242 252 268 272 270 250 261 272 278 283 285 283 281
270 271 271 266 261 259 261 255 250 252 251 247 244 242 237 227 226 228 232 230 236 241 244 252 260 262 269 271 269 269 267 253 258 269 282 285 288 283
278 278 281 280 273 268 263 255 253 254 255 253 250 246 243 238 233 232 231 232 237 242 251 260 256 249 251 253 263 273 278 287 275 267 262 256 265 267
283 281 281 279 274 272 264 255 254 257 255 253 249 247 245 248 247 242 238 236 237 241 245 250 256 260 262 259 264 274 278 283 286 286 279 268 265 271
Height
1506 1508 1510 1511 1513 1514 1516 1518 1519 1519 1520 1520 1521 1521 1522 1523 1523 1523 1524 1524 1524 1524 1524 1524 1524 1525 1525 1525 1525 1525 1525 1525 1525 1524 1524 1524 1524 1523
1502 1504 1505 1507 1509 1510 1512 1513 1515 1516 1515 1515 1516 1517 1518 1519 1519 1519 1520 1520 1520 1520 1520 1520 1520 1520 1520 1520 1520 1520 1520 1520 1520 1520 1520 1520 1519 1519
1498 1499 1501 1503 1504 1506 1507 1508 1510 1511 1511 1511 1512 1513 1514 1515 1515 1515 1516 1515 1515 1516 1516 1516 1516 1515 1515 1515 1515 1516 1516 1516 1516 1515 1515 1515 1514 1514
1494 1495 1497 1498 1500 1501 1502 1504 1505 1506 1508 1507 1508 1509 1509 1510 1511 1511 1511 1511 1511 1511 1511 1511 1511 1511 1510 1510 1510 1511 1511 1510 1511 1510 1510 1510 1509 1509
1489 1491 1492 1493 1495 1496 1497 1499 1500 1502 1503 1503 1503 1504 1505 1506 1506 1506 1507 1506 1506 1506 1506 1506 1506 1506 1506 1506 1506 1505 1505 1505 1505 1505 1505 1505 1504 1504
1485 1486 1487 1489 1490 1491 1492 1494 1496 1497 1498 1499 1499 1500 1500 1501 1501 1502 1502 1502 1502 1502 1502 1501 1501 1501 1501 1501 1500 1500 1500 1500 1500 1500 1500 1499 1499 1499
1480 1481 1482 1484 1485 1487 1488 1490 1491 1492 1494 1494 1494 1495 1496 1496 1497 1497 1497 1497 1497 1497 1497 1496 1497 1496 1496 1496 1495 1495 1494 1494 1494 1494 1494 1494 1494 1493
1474 1476 1477 1479 1480 1481 1483 1485 1486 1487 1488 1489 1489 1490 1491 1492 1492 1493 1493 1493 1492 1493 1492 1492 1492 1491 1491 1491 1490 1490 1489 1489 1489 1489 1489 1489 1488 1488
1470 1471 1472 1473 1474 1476 1477 1479 1480 1482 1483 1484 1484 1485 1486 1487 1488 1488 1488 1488 1487 1488 1488 1486 1487 1486 1486 1486 1485 1485 1484 1483 1483 1483 1483 1483 1483 1482
1465 1466 1467 1468 1469 1471 1472 1473 1474 1476 1477 1479 1480 1480 1481 1482 1483 1483 1483 1483 1483 1483 1483 1482 1482 1481 1481 1481 1480 1479 1479 1479 1478 1478 1477 1477 1477 1477
1460 1461 1462 1463 1464 1466 1467 1467 1469 1470 1471 1473 1474 1475 1475 1476 1477 1478 1478 1478 1477 1477 1478 1478 1477 1476 1476 1475 1475 1474 1474 1474 1473 1472 1472 1472 1472 1472
1455 1456 1457 1458 1460 1461 1462 1463 1463 1464 1466 1467 1468 1469 1469 1470 1471 1472 1473 1473 1472 1472 1472 1473 1472 1472 1471 1470 1470 1469 1469 1468 1468 1467 1467 1466 1466 1466
1450 1451 1452 1454 1455 1456 1458 1458 1459 1460 1461 1462 1462 1463 1464 1465 1465 1467 1467 1468 1468 1468 1468 1469 1468 1467 1467 1465 1465 1464 1464 1463 1462 1462 1461 1461 1460 1460
1446 1447 1448 1449 1451 1452 1453 1453 1455 1456 1456 1457 1457 1457 1458 1459 1460 1461 1462 1463 1463 1463 1463 1464 1463 1463 1462 1461 1460 1459 1459 1458 1457 1456 1456 1455 1455 1455
1442 1443 1444 1445 1446 1447 1448 1449 1450 1450 1451 1451 1452 1453 1454 1455 1455 1456 1457 1457 1458 1458 1458 1458 1458 1458 1458 1457 1455 1454 1454 1453 1453 1452 1451 1450 1449 1449
1438 1439 1440 1441 1442 1442 1443 1444 1445 1445 1446 1447 1447 1448 1449 1450 1450 1451 1452 1452 1452 1452 1453 1453 1453 1453 1453 1452 1451 1450 1449 1449 1448 1447 1446 1445 1444 1444
1435 1435 1436 1437 1437 1437 1438 1439 1440 1441 1442 1442 1443 1444 1444 1445 1446 1446 1447 1447 1447 1447 1447 1448 1448 1448 1448 1447 1446 1445 1445 1444 1443 1442 1441 1439 1439 1438
1431 1431 1431 1432 1432 1433 1433 1434 1435 1435 1436 1437 1438 1439 1439 1440 1441 1441 1442 1442 1442 1442 1442 1443 1443 1443 1443 1442 1442 1440 1440 1439 1438 1437 1435 1434 1432 1433
1426 1427 1427 1427 1428 1428 1429 1429 1430 1431 1432 1433 1433 1434 1435 1435 1436 1436 1437 1437 1437 1437 1438 1438 1438 1438 1437 1436 1436 1437 1436 1434 1433 1432 1430 1429 1427 1427
1422 1422 1423 1423 1423 1424 1425 1425 1426 1426 1427 1428 1428 1429 1429 1430 1431 1431 1432 1432 1433 1433 1433 1433 1433 1433 1433 1433 1432 1431 1431 1430 1428 1427 1426 1424 1423 1422
1419 1419 1419 1419 1419 1420 1421 1421 1421 1422 1422 1423 1423 1424 1425 1425 1426 1426 1427 1427 1428 1428 1428 1428 1428 1429 1428 1428 1427 1426 1426 1426 1424 1423 1422 1420 1418 1417
1415 1415 1415 1415 1416 1416 1416 1417 1417 1417 1418 1418 1419 1419 1420 1420 1421 1421 1422 1423 1423 1423 1423 1424 1424 1424 1424 1424 1422 1422 1421 1421 1420 1419 1418 1417 1415 1413
1412 1412 1412 1412 1412 1412 1412 1413 1413 1413 1413 1414 1414 1414 1415 1415 1416 1417 1417 1418 1419 1419 1419 1419 1419 1419 1419 1419 1419 1418 1417 1416 1415 1414 1414 1413 1412 1411